[Iaude] MPEC T155: 2023 TR5 [a=2.15,e=0.49,i=7.4,H=23.5]

mpec at marsden.cfa.harvard.edu mpec at marsden.cfa.harvard.edu
Wed Oct 11 13:08:48 EDT 2023


M.P.E.C. 2023-T155                             Issued 2023 October 11, 17:07 UT

     The Minor Planet Electronic Circulars contain information on unusual
         minor planets, routine data on comets and natural satellites,
         and occasional editorial announcements.  They are published
    on behalf of Division F of the International Astronomical Union by the
          Minor Planet Center, Smithsonian Astrophysical Observatory,
                          Cambridge, MA 02138, U.S.A.
			  
             Prepared using the Tamkin Foundation Computer Network

                              MPC at CFA.HARVARD.EDU
            URL https://www.minorplanetcenter.net/    ISSN 1523-6714

                                    2023 TR5                                    


Observations:
     K23T05R* C2023 10 05.38391800 42 17.731-18 00 52.14         21.59wXET155F51
     K23T05R  C2023 10 05.39502800 42 17.546-18 00 14.93         22.38wXET155F51
     K23T05R  C2023 10 05.40609800 42 17.332-17 59 38.45         21.45wXET155F51
     K23T05R  C2023 10 05.41716100 42 17.136-17 59 01.37         21.17wXET155F51
     K23T05R  C2023 10 05.53961800 42 15.029-17 52 12.55         22.19GVET155F51
     K23T05R  C2023 10 05.54025700 42 15.023-17 52 10.09         21.59GVET155F51
     K23T05R  C2023 10 07.38142800 42 12.444-16 12 40.97         21.36GVET155F51
     K23T05R  C2023 10 07.38224300 42 12.445-16 12 37.89         21.69GVET155F51
     K23T05R  C2023 10 10.38490200 42 06.957-13 39 55.71         22.26wXET155F52
     K23T05R  C2023 10 10.39594600 42 06.792-13 39 23.56         21.58wXET155F52
     K23T05R  C2023 10 10.40702200 42 06.631-13 38 51.06         21.44wXET155F52

Observer details:
F51 Pan-STARRS 1, Haleakala.  Observers J. Bulger, T. Lowe, P. Minguez, A.
    Schultz, I. Smith, K. Chambers.  Measurers K. Chambers, T. de Boer, J.
    Bulger, J. Fairlamb, H. Gao, M. Huber, C.-C. Lin, T. Lowe, E. Magnier, P.
    Minguez, Y. Ramanjooloo, A. Schultz, I. Smith, R. Wainscoat, R. Weryk, S.
    Chastel.  1.8-m Ritchey-Chretien + CCD.
F52 Pan-STARRS 2, Haleakala.  Observers J. Bulger, T. Lowe, P. Minguez, A.
    Schultz, I. Smith.  Measurers K. Chambers, T. de Boer, J. Bulger, J.
    Fairlamb, H. Gao, M. Huber, C.-C. Lin, T. Lowe, E. Magnier, P. Minguez, Y.
    Ramanjooloo, A. Schultz, I. Smith, R. Wainscoat, R. Weryk.  1.8-m Ritchey-
    Chretien + CCD.

Orbital elements:
2023 TR5                                                 Earth MOID = 0.1602 AU
Epoch 2023 Sept. 13.0 TT = JDT 2460200.5                Bell                    
M   7.25465              (2000.0)            P               Q                  
n   0.31265637     Peri.  284.21900     +0.81993471     +0.56614494             
a   2.1499310      Node    41.39229     -0.46325335     +0.74320639             
e   0.4855936      Incl.    7.36636     -0.33630850     +0.35654476             
P   3.15           H   23.53          G   0.15           U   9                  
Residuals in seconds of arc
231005 F51  0.0   0.2-    231005 F51  0.0   0.3-    231010 F52  0.0   0.1+
231005 F51  0.2+  0.2+    231005 F51  0.0   0.0     231010 F52  0.0   0.1-
231005 F51  0.0   0.0     231007 F51  0.1-  0.3-    231010 F52  0.1+  0.0
231005 F51  0.1+  0.3+    231007 F51  0.1+  0.3+

Ephemeris:
2023 TR5                 a,e,i = 2.15, 0.49, 7                   q = 1.1059
Date    TT    R. A. (2000) Decl.     Delta      r    Elong.  Phase     V
2023 09 11    00 36 30.3 -45 59 32   0.1673  1.1318   135.2    38.8    21.5
...
2023 09 26    00 42 26.4 -27 38 52   0.1979  1.1788   150.3    24.9    21.5
...
2023 10 04    00 42 20.9 -19 18 35   0.2265  1.2118   156.6    19.1    21.7
...
2023 10 10    00 42 07.0 -13 58 34   0.2540  1.2397   159.2    16.6    21.9
2023 10 11    00 42 06.1 -13 09 49   0.2591  1.2445   159.5    16.4    22.0
2023 10 12    00 42 05.9 -12 22 21   0.2644  1.2495   159.6    16.2    22.0
...
2023 10 18    00 42 24.1 -08 03 00   0.2989  1.2803   159.1    16.1    22.3
...
2023 10 26    00 43 57.1 -03 17 51   0.3530  1.3241   155.7    18.0    22.8
...
2023 11 10    00 50 52.3 +03 15 29   0.4789  1.4129   145.9    23.1    23.8

M. P. C. Staff               (C) Copyright 2023 MPC           M.P.E.C. 2023-T155





More information about the Iaude mailing list